Terminal Aerodrome Forecast
Issued by NWS

Home | Current Version | Previous Version | Text Only | Print | Product List | Glossary On
Versions: 1 2 3 4 5 6 7 8 9 10 11 12 13
000
FTUS42 TJSJ 170541
TAFJSJ
TAF
TJSJ 170541Z 1706/1806 06013G20KT P6SM VCSH FEW025 SCT030 SCT060
     FM171400 06017G23KT P6SM -SHRA FEW025 SCT030 SCT050
     FM172230 08010KT P6SM FEW030 SCT060=

USA.gov is the U.S. government's official web portal to all federal, state and local government web resources and services.